| time (UTC) | temp F | wind direction | speed MPH | gust MPH | rain 1hr in | rain 24hr in | rain mn in | humidity % | barometer mb |
| 20260510151806 | 56 | 56 | 8.0 | 11.0 | 0.00 | 0.00 | 0.00 | 57 | 1015.6 |
| 20260510150927 | 56 | 27 | 8.0 | 11.0 | 0.00 | 0.00 | 0.00 | 57 | 1015.6 |
| 20260510150006 | 56 | 334 | 10.0 | 15.0 | 0.00 | 0.00 | 0.00 | 57 | 1015.6 |
| 20260510145406 | 56 | 49 | 9.0 | 15.0 | 0.00 | 0.00 | 0.00 | 57 | 1015.7 |
| 20260510144527 | 56 | 21 | 9.0 | 13.0 | 0.00 | 0.00 | 0.00 | 58 | 1015.9 |
| 20260510143606 | 56 | 49 | 6.0 | 10.0 | 0.00 | 0.00 | 0.00 | 60 | 1015.9 |
| 20260510142706 | 56 | 35 | 9.0 | 13.0 | 0.00 | 0.00 | 0.00 | 59 | 1016.1 |
| 20260510141806 | 56 | 48 | 9.0 | 15.0 | 0.00 | 0.00 | 0.00 | 60 | 1016.1 |
| 20260510140906 | 56 | 36 | 8.0 | 11.0 | 0.00 | 0.00 | 0.00 | 60 | 1016.2 |
| 20260510140006 | 56 | 58 | 8.0 | 11.0 | 0.00 | 0.00 | 0.00 | 61 | 1016.2 |
| 20260510135406 | 56 | 48 | 10.0 | 14.0 | 0.00 | 0.00 | 0.00 | 60 | 1016.1 |
| 20260510134506 | 56 | 62 | 7.0 | 14.0 | 0.00 | 0.00 | 0.00 | 62 | 1016.2 |
| 20260510133606 | 56 | 43 | 8.0 | 13.0 | 0.00 | 0.00 | 0.00 | 62 | 1016.2 |
| 20260510132706 | 55 | 47 | 8.0 | 14.0 | 0.00 | 0.00 | 0.00 | 63 | 1016.2 |
| 20260510131806 | 55 | 34 | 9.0 | 21.0 | 0.00 | 0.00 | 0.00 | 62 | 1016.3 |
| 20260510130906 | 55 | 355 | 7.0 | 10.0 | 0.00 | 0.00 | 0.00 | 62 | 1016.4 |
| 20260510130027 | 55 | 62 | 8.0 | 15.0 | 0.00 | 0.00 | 0.00 | 63 | 1016.4 |
| 20260510125406 | 55 | 69 | 9.0 | 12.0 | 0.00 | 0.00 | 0.00 | 63 | 1016.5 |
| 20260510124506 | 55 | 59 | 7.0 | 11.0 | 0.00 | 0.00 | 0.00 | 64 | 1016.7 |
| 20260510123606 | 55 | 50 | 9.0 | 12.0 | 0.00 | 0.00 | 0.00 | 65 | 1016.7 |
| 20260510122727 | 55 | 53 | 7.0 | 10.0 | 0.00 | 0.00 | 0.00 | 66 | 1016.8 |
| 20260510121806 | 55 | 27 | 9.0 | 17.0 | 0.00 | 0.00 | 0.00 | 66 | 1016.8 |
| 20260510120906 | 55 | 22 | 7.0 | 11.0 | 0.00 | 0.00 | 0.00 | 65 | 1017.0 |
| 20260510120007 | 55 | 47 | 9.0 | 12.0 | 0.00 | 0.00 | 0.00 | 63 | 1016.9 |
| 20260510115406 | 56 | 61 | 9.0 | 11.0 | 0.00 | 0.00 | 0.00 | 63 | 1016.9 |
| 20260510114506 | 56 | 31 | 11.0 | 15.0 | 0.00 | 0.00 | 0.00 | 63 | 1016.9 |
| 20260510113627 | 57 | 78 | 10.0 | 16.0 | 0.00 | 0.00 | 0.00 | 63 | 1017.2 |
| 20260510112727 | 57 | 60 | 10.0 | 14.0 | 0.00 | 0.00 | 0.00 | 61 | 1017.2 |
| 20260510111827 | 58 | 43 | 10.0 | 14.0 | 0.00 | 0.00 | 0.00 | 60 | 1017.2 |
| 20260510110906 | 58 | 13 | 9.0 | 14.0 | 0.00 | 0.00 | 0.00 | 57 | 1017.2 |
| 20260510110006 | 59 | 76 | 11.0 | 17.0 | 0.00 | 0.00 | 0.00 | 59 | 1017.1 |
| 20260510105406 | 58 | 65 | 9.0 | 17.0 | 0.00 | 0.00 | 0.00 | 61 | 1017.2 |
| 20260510104527 | 58 | 52 | 10.0 | 17.0 | 0.00 | 0.00 | 0.00 | 60 | 1017.2 |
| 20260510103606 | 58 | 64 | 8.0 | 12.0 | 0.00 | 0.00 | 0.00 | 61 | 1017.2 |
| 20260510102727 | 58 | 52 | 12.0 | 15.0 | 0.00 | 0.00 | 0.00 | 61 | 1017.4 |
| 20260510101806 | 57 | 66 | 12.0 | 16.0 | 0.00 | 0.00 | 0.00 | 62 | 1017.4 |
| 20260510100906 | 57 | 27 | 11.0 | 20.0 | 0.00 | 0.00 | 0.00 | 62 | 1017.4 |
| 20260510100006 | 58 | 9 | 12.0 | 20.0 | 0.00 | 0.00 | 0.00 | 61 | 1017.4 |
| 20260510095406 | 58 | 58 | 10.0 | 15.0 | 0.00 | 0.00 | 0.00 | 61 | 1017.3 |
| 20260510094506 | 57 | 15 | 10.0 | 16.0 | 0.00 | 0.00 | 0.00 | 63 | 1017.3 |
| 20260510093606 | 57 | 58 | 10.0 | 22.0 | 0.00 | 0.00 | 0.00 | 63 | 1017.5 |
| 20260510092727 | 56 | 54 | 9.0 | 14.0 | 0.00 | 0.00 | 0.00 | 64 | 1017.7 |
| 20260510091806 | 55 | 59 | 10.0 | 16.0 | 0.00 | 0.00 | 0.00 | 66 | 1017.6 |
| 20260510090927 | 54 | 69 | 10.0 | 16.0 | 0.00 | 0.00 | 0.00 | 67 | 1017.6 |
| 20260510090006 | 54 | 53 | 10.0 | 20.0 | 0.00 | 0.00 | 0.00 | 68 | 1017.8 |
| 20260510085406 | 54 | 50 | 10.0 | 15.0 | 0.00 | 0.00 | 0.00 | 68 | 1017.8 |
| 20260510084506 | 54 | 53 | 10.0 | 15.0 | 0.00 | 0.00 | 0.00 | 68 | 1017.9 |
| 20260510083606 | 54 | 59 | 10.0 | 14.0 | 0.00 | 0.00 | 0.00 | 69 | 1018.0 |
| 20260510082706 | 54 | 53 | 7.0 | 14.0 | 0.00 | 0.00 | 0.00 | 70 | 1017.9 |
| 20260510081806 | 53 | 14 | 9.0 | 13.0 | 0.00 | 0.00 | 0.00 | 72 | 1018.0 |
| 20260510080906 | 52 | 59 | 7.0 | 11.0 | 0.00 | 0.00 | 0.00 | 72 | 1017.9 |
| 20260510080006 | 52 | 79 | 10.0 | 12.0 | 0.00 | 0.00 | 0.00 | 73 | 1018.0 |
| 20260510075406 | 52 | 75 | 9.0 | 12.0 | 0.00 | 0.00 | 0.00 | 73 | 1018.1 |
| 20260510074506 | 52 | 63 | 8.0 | 13.0 | 0.00 | 0.00 | 0.00 | 74 | 1018.0 |
| 20260510073627 | 52 | 30 | 8.0 | 14.0 | 0.00 | 0.00 | 0.00 | 74 | 1018.0 |
| 20260510072706 | 52 | 32 | 8.0 | 14.0 | 0.00 | 0.00 | 0.00 | 75 | 1017.9 |
| 20260510071827 | 52 | 21 | 9.0 | 12.0 | 0.00 | 0.00 | 0.00 | 77 | 1017.9 |
| 20260510070906 | 52 | 53 | 7.0 | 17.0 | 0.00 | 0.00 | 0.00 | 78 | 1018.0 |
| 20260510070027 | 51 | 42 | 7.0 | 17.0 | 0.00 | 0.00 | 0.00 | 78 | 1018.0 |
| 20260510065406 | 51 | 41 | 7.0 | 9.0 | 0.00 | 0.00 | 0.00 | 79 | 1017.8 |
| 20260510064506 | 51 | 26 | 10.0 | 16.0 | 0.00 | 0.00 | 0.00 | 79 | 1017.9 |
| 20260510063606 | 51 | 360 | 8.0 | 15.0 | 0.00 | 0.00 | 0.00 | 80 | 1017.8 |
| 20260510062706 | 51 | 63 | 7.0 | 10.0 | 0.00 | 0.00 | 0.00 | 80 | 1017.9 |
| 20260510061806 | 51 | 66 | 7.0 | 10.0 | 0.00 | 0.00 | 0.00 | 81 | 1017.7 |
| 20260510060906 | 50 | 61 | 8.0 | 12.0 | 0.00 | 0.00 | 0.00 | 81 | 1017.7 |
| 20260510060006 | 50 | 34 | 9.0 | 12.0 | 0.00 | 0.00 | 0.00 | 81 | 1017.6 |
| 20260510055406 | 50 | 51 | 7.0 | 11.0 | 0.00 | 0.00 | 0.00 | 81 | 1017.5 |
| 20260510054527 | 50 | 48 | 7.0 | 10.0 | 0.00 | 0.00 | 0.00 | 81 | 1017.6 |
| 20260510053606 | 50 | 69 | 5.0 | 8.0 | 0.00 | 0.00 | 0.00 | 82 | 1017.6 |
| 20260510052727 | 50 | 55 | 6.0 | 10.0 | 0.00 | 0.00 | 0.00 | 81 | 1017.7 |
| 20260510051806 | 50 | 28 | 8.0 | 12.0 | 0.00 | 0.00 | 0.00 | 81 | 1017.7 |
| 20260510050906 | 50 | 35 | 8.0 | 12.0 | 0.00 | 0.00 | 0.00 | 82 | 1017.7 |
| 20260510050006 | 50 | 61 | 7.0 | 11.0 | 0.00 | 0.00 | 0.00 | 82 | 1017.7 |
| 20260510045406 | 50 | 53 | 6.0 | 11.0 | 0.00 | 0.00 | 0.00 | 82 | 1017.7 |
| 20260510044506 | 50 | 9 | 6.0 | 8.0 | 0.00 | 0.00 | 0.00 | 82 | 1017.7 |
| 20260510043606 | 50 | 67 | 7.0 | 10.0 | 0.00 | 0.00 | 0.00 | 83 | 1017.6 |
| 20260510042727 | 50 | 38 | 6.0 | 11.0 | 0.00 | 0.00 | 0.00 | 82 | 1017.6 |
| 20260510041806 | 50 | 339 | 5.0 | 8.0 | 0.00 | 0.00 | 0.00 | 83 | 1017.6 |
| 20260510040906 | 50 | 28 | 5.0 | 8.0 | 0.00 | 0.00 | 0.00 | 82 | 1017.7 |
| 20260510040006 | 50 | 31 | 3.0 | 4.0 | 0.00 | 0.00 | 0.00 | 82 | 1017.7 |
| 20260510035406 | 50 | 42 | 4.0 | 6.0 | 0.00 | 0.00 | 0.00 | 82 | 1017.9 |
| 20260510034506 | 50 | 48 | 5.0 | 10.0 | 0.00 | 0.00 | 0.00 | 82 | 1017.9 |
| 20260510033606 | 49 | 45 | 6.0 | 11.0 | 0.00 | 0.00 | 0.00 | 82 | 1018.0 |
| 20260510032706 | 49 | 45 | 5.0 | 8.0 | 0.00 | 0.00 | 0.00 | 82 | 1018.0 |
| 20260510031806 | 49 | 60 | 5.0 | 8.0 | 0.00 | 0.00 | 0.00 | 82 | 1018.1 |
| 20260510030906 | 49 | 76 | 6.0 | 8.0 | 0.00 | 0.00 | 0.00 | 82 | 1018.0 |
| 20260510030027 | 49 | 51 | 6.0 | 8.0 | 0.00 | 0.00 | 0.00 | 82 | 1018.0 |
| 20260510025406 | 50 | 56 | 6.0 | 9.0 | 0.00 | 0.00 | 0.00 | 82 | 1018.1 |
| 20260510024506 | 50 | 41 | 5.0 | 8.0 | 0.00 | 0.00 | 0.00 | 82 | 1018.0 |
| 20260510023606 | 50 | 33 | 6.0 | 9.0 | 0.00 | 0.00 | 0.00 | 82 | 1018.2 |
| 20260510022706 | 50 | 29 | 5.0 | 8.0 | 0.00 | 0.00 | 0.00 | 83 | 1018.2 |
| 20260510021827 | 50 | 57 | 5.0 | 7.0 | 0.00 | 0.00 | 0.00 | 82 | 1018.1 |
| 20260510020906 | 50 | 49 | 5.0 | 8.0 | 0.00 | 0.00 | 0.00 | 81 | 1018.1 |
| 20260510020006 | 50 | 38 | 6.0 | 8.0 | 0.00 | 0.00 | 0.00 | 81 | 1017.9 |
| 20260510015406 | 50 | 46 | 6.0 | 8.0 | 0.00 | 0.00 | 0.00 | 81 | 1018.1 |
| 20260510014506 | 50 | 57 | 5.0 | 6.0 | 0.00 | 0.00 | 0.00 | 80 | 1018.2 |
| 20260510013606 | 51 | 35 | 5.0 | 8.0 | 0.00 | 0.00 | 0.00 | 80 | 1018.3 |
| 20260510012727 | 51 | 34 | 5.0 | 8.0 | 0.00 | 0.00 | 0.00 | 79 | 1018.4 |
| 20260510011827 | 51 | 28 | 5.0 | 7.0 | 0.00 | 0.00 | 0.00 | 78 | 1018.3 |
| 20260510010906 | 51 | 45 | 6.0 | 8.0 | 0.00 | 0.00 | 0.00 | 76 | 1018.1 |
| 20260510010006 | 51 | 51 | 5.0 | 7.0 | 0.00 | 0.00 | 0.00 | 75 | 1018.1 |
| 20260510005406 | 51 | 59 | 6.0 | 9.0 | 0.00 | 0.00 | 0.00 | 73 | 1018.2 |
| 20260510004506 | 52 | 29 | 6.0 | 9.0 | 0.00 | 0.00 | 0.00 | 71 | 1018.3 |
| 20260510003606 | 52 | 25 | 7.0 | 8.0 | 0.00 | 0.00 | 0.00 | 65 | 1018.3 |
| 20260510002706 | 52 | 47 | 5.0 | 7.0 | 0.00 | 0.00 | 0.00 | 61 | 1018.2 |
| 20260510001806 | 53 | 23 | 6.0 | 9.0 | 0.00 | 0.00 | 0.00 | 60 | 1018.3 |
| 20260510000906 | 53 | 34 | 7.0 | 13.0 | 0.00 | 0.00 | 0.00 | 57 | 1018.2 |
| 20260510000006 | 53 | 45 | 6.0 | 8.0 | 0.00 | 0.00 | 0.00 | 55 | 1018.2 |
| 20260509235427 | 53 | 50 | 6.0 | 8.0 | 0.00 | 0.00 | 0.00 | 55 | 1018.2 |
| 20260509234506 | 54 | 54 | 4.0 | 6.0 | 0.00 | 0.00 | 0.00 | 54 | 1018.2 |
| 20260509233606 | 54 | 51 | 5.0 | 7.0 | 0.00 | 0.00 | 0.00 | 54 | 1018.0 |
| 20260509232706 | 54 | 20 | 4.0 | 5.0 | 0.00 | 0.00 | 0.00 | 53 | 1018.0 |
| 20260509231806 | 55 | 24 | 5.0 | 9.0 | 0.00 | 0.00 | 0.00 | 53 | 1018.1 |
| 20260509230906 | 55 | 36 | 5.0 | 8.0 | 0.00 | 0.00 | 0.00 | 52 | 1018.1 |
| 20260509230006 | 55 | 60 | 3.0 | 5.0 | 0.00 | 0.00 | 0.00 | 51 | 1017.9 |
| 20260509225406 | 55 | 47 | 4.0 | 5.0 | 0.00 | 0.00 | 0.00 | 51 | 1017.9 |
| 20260509224506 | 55 | 35 | 4.0 | 5.0 | 0.00 | 0.00 | 0.00 | 50 | 1018.0 |
| 20260509223606 | 55 | 21 | 3.0 | 5.0 | 0.00 | 0.00 | 0.00 | 51 | 1017.8 |
| 20260509222706 | 55 | 46 | 2.0 | 4.0 | 0.00 | 0.00 | 0.00 | 50 | 1017.8 |
| 20260509221806 | 56 | 49 | 4.0 | 5.0 | 0.00 | 0.00 | 0.00 | 50 | 1017.9 |
| 20260509220906 | 56 | 45 | 3.0 | 5.0 | 0.00 | 0.00 | 0.00 | 50 | 1017.8 |
| 20260509220006 | 56 | 58 | 2.0 | 4.0 | 0.00 | 0.00 | 0.00 | 51 | 1017.9 |
| 20260509215406 | 56 | 91 | 2.0 | 4.0 | 0.00 | 0.00 | 0.00 | 52 | 1017.9 |
| 20260509214506 | 56 | 102 | 2.0 | 4.0 | 0.00 | 0.00 | 0.00 | 52 | 1018.0 |
| 20260509213606 | 56 | 103 | 2.0 | 3.0 | 0.00 | 0.00 | 0.00 | 52 | 1017.9 |
| 20260509212706 | 57 | 59 | 2.0 | 2.0 | 0.00 | 0.00 | 0.00 | 53 | 1017.8 |
| 20260509211806 | 58 | 47 | 2.0 | 2.0 | 0.00 | 0.00 | 0.00 | 51 | 1017.6 |
| 20260509210906 | 58 | 75 | 2.0 | 3.0 | 0.00 | 0.00 | 0.00 | 51 | 1017.5 |
| 20260509210006 | 58 | 64 | 2.0 | 4.0 | 0.00 | 0.00 | 0.00 | 50 | 1017.4 |
| 20260509205405 | 59 | 55 | 2.0 | 4.0 | 0.00 | 0.00 | 0.00 | 50 | 1017.5 |
| 20260509204527 | 59 | 64 | 2.0 | 4.0 | 0.00 | 0.00 | 0.00 | 48 | 1017.5 |
| 20260509203606 | 60 | 122 | 1.0 | 2.0 | 0.00 | 0.00 | 0.00 | 47 | 1017.3 |
| 20260509202706 | 60 | 128 | 2.0 | 3.0 | 0.00 | 0.00 | 0.00 | 46 | 1017.3 |
| 20260509201806 | 60 | 108 | 3.0 | 4.0 | 0.00 | 0.00 | 0.00 | 45 | 1017.2 |
| 20260509200906 | 61 | 121 | 2.0 | 4.0 | 0.00 | 0.00 | 0.00 | 44 | 1017.1 |
| 20260509200027 | 61 | 137 | 3.0 | 4.0 | 0.00 | 0.00 | 0.00 | 43 | 1016.9 |
| 20260509195406 | 62 | 150 | 3.0 | 6.0 | 0.00 | 0.00 | 0.00 | 42 | 1016.9 |
| 20260509194506 | 62 | 97 | 4.0 | 6.0 | 0.00 | 0.00 | 0.00 | 42 | 1016.7 |
| 20260509193627 | 62 | 133 | 3.0 | 6.0 | 0.00 | 0.00 | 0.00 | 42 | 1016.7 |
| 20260509192706 | 63 | 165 | 4.0 | 6.0 | 0.00 | 0.00 | 0.00 | 40 | 1016.6 |
| 20260509191805 | 63 | 102 | 4.0 | 5.0 | 0.00 | 0.00 | 0.00 | 40 | 1016.6 |
| 20260509190905 | 64 | 103 | 4.0 | 7.0 | 0.00 | 0.00 | 0.00 | 39 | 1016.5 |
| 20260509190006 | 64 | 113 | 5.0 | 7.0 | 0.00 | 0.00 | 0.00 | 39 | 1016.5 |
| 20260509185406 | 65 | 143 | 4.0 | 7.0 | 0.00 | 0.00 | 0.00 | 39 | 1016.6 |
| 20260509184506 | 65 | 102 | 4.0 | 8.0 | 0.00 | 0.00 | 0.00 | 39 | 1016.5 |
| 20260509183606 | 66 | 141 | 4.0 | 6.0 | 0.00 | 0.00 | 0.00 | 38 | 1016.4 |
| 20260509182705 | 67 | 124 | 5.0 | 5.0 | 0.00 | 0.00 | 0.00 | 36 | 1016.2 |
| 20260509181805 | 67 | 120 | 5.0 | 8.0 | 0.00 | 0.00 | 0.00 | 36 | 1016.3 |
| 20260509180906 | 67 | 122 | 6.0 | 8.0 | 0.00 | 0.00 | 0.00 | 35 | 1016.2 |
| 20260509180027 | 67 | 132 | 5.0 | 8.0 | 0.00 | 0.00 | 0.00 | 36 | 1016.2 |
| 20260509175406 | 67 | 125 | 4.0 | 8.0 | 0.00 | 0.00 | 0.00 | 37 | 1016.1 |
| 20260509174505 | 69 | 73 | 5.0 | 7.0 | 0.00 | 0.00 | 0.00 | 35 | 1016.1 |
| 20260509173605 | 69 | 138 | 6.0 | 10.0 | 0.00 | 0.00 | 0.00 | 34 | 1015.9 |
| 20260509172705 | 69 | 100 | 4.0 | 8.0 | 0.00 | 0.00 | 0.00 | 34 | 1015.8 |
| 20260509171805 | 70 | 125 | 4.0 | 9.0 | 0.00 | 0.00 | 0.00 | 33 | 1015.9 |
| 20260509170906 | 71 | 108 | 5.0 | 9.0 | 0.00 | 0.00 | 0.00 | 33 | 1016.1 |
| 20260509170006 | 71 | 122 | 5.0 | 7.0 | 0.00 | 0.00 | 0.00 | 33 | 1015.9 |
| 20260509165405 | 71 | 58 | 5.0 | 8.0 | 0.00 | 0.00 | 0.00 | 32 | 1015.9 |
| 20260509164506 | 71 | 53 | 6.0 | 8.0 | 0.00 | 0.00 | 0.00 | 32 | 1015.8 |
| 20260509163605 | 70 | 61 | 7.0 | 11.0 | 0.00 | 0.00 | 0.00 | 32 | 1015.8 |
| 20260509162705 | 71 | 82 | 6.0 | 11.0 | 0.00 | 0.00 | 0.00 | 31 | 1015.8 |
| 20260509161805 | 71 | 89 | 5.0 | 8.0 | 0.00 | 0.00 | 0.00 | 32 | 1015.7 |
| 20260509160905 | 71 | 77 | 6.0 | 11.0 | 0.00 | 0.00 | 0.00 | 31 | 1015.9 |
| 20260509160026 | 71 | 61 | 5.0 | 8.0 | 0.00 | 0.00 | 0.00 | 34 | 1015.9 |
| 20260509155405 | 70 | 49 | 4.0 | 5.0 | 0.00 | 0.00 | 0.00 | 35 | 1016.0 |
| 20260509154506 | 70 | 17 | 4.0 | 7.0 | 0.00 | 0.00 | 0.00 | 34 | 1016.1 |
| 20260509153606 | 71 | 121 | 6.0 | 9.0 | 0.00 | 0.00 | 0.00 | 33 | 1016.2 |
| 20260509152705 | 71 | 52 | 7.0 | 9.0 | 0.00 | 0.00 | 0.00 | 32 | 1016.3 |